Temp_Advection
nan nan nan nan nan nan nan nan nan nan nan nan nan nan nan nan nan nan nan nan nan nan nan nan nan nan nan nan nan nan nan nan nan nan nan nan nan nan nan nan nan nan
nan -0 -0 -0 -0 -0 -0 -0 -1 -1 -1 0 1 -0 -0 -0 0 0 -0 -1 -1 0 0 0 0 -0 -0 -0 0 0 -0 -0 0 1 1 0 0 -0 -0 -0 -0 nan
nan -0 -0 -0 -0 -0 -0 -0 -0 -1 -1 -0 0 0 0 -0 -0 -0 -0 -0 -0 0 0 0 0 -0 -0 0 0 0 0 -0 -0 1 1 0 -0 -0 -0 -0 -0 nan
nan -0 -0 -0 -0 0 0 -0 -0 -0 -0 -1 -1 0 1 0 -0 -1 -0 0 0 0 0 0 0 0 0 0 -0 0 0 -0 0 1 1 0 -0 -0 -0 -0 -0 nan
nan -0 -0 0 0 0 -0 -1 -1 -0 -0 -0 -0 0 0 0 0 -1 -1 -0 0 0 0 0 0 0 0 0 -0 0 0 0 0 1 1 0 -0 -0 -0 -1 -0 nan
nan -0 -0 0 0 0 -1 -1 -1 -0 -0 -0 0 0 -0 0 0 0 -0 -1 -0 0 1 0 0 0 0 0 -0 -0 -0 0 0 0 1 0 0 -0 -0 -1 -1 nan
nan -0 -0 0 -0 -0 -1 -1 -0 0 0 0 0 0 -0 -0 -0 0 0 -0 -0 0 1 1 -0 -0 0 0 0 -0 -0 0 0 0 0 0 0 -0 -0 -1 -1 nan
nan -0 0 0 0 0 -0 -0 0 1 1 0 -0 -0 -0 -0 -0 0 1 0 0 0 1 1 -0 -1 0 0 0 -0 -0 0 0 -0 0 0 -0 -0 -1 -1 -2 nan
nan -0 0 0 1 1 0 0 1 1 -0 -0 -0 0 -0 0 1 1 0 0 1 0 0 0 -0 -1 -0 0 0 0 0 0 0 0 0 0 -0 -1 -1 -1 -2 nan
nan 0 -0 -0 0 0 0 1 2 1 -1 -1 0 1 1 0 1 1 0 0 0 0 0 -0 -1 -1 -0 0 0 0 0 1 1 0 -0 -0 -1 -1 -0 -0 -2 nan
nan -0 -1 -1 -0 -0 1 1 1 1 -0 -1 -0 1 2 0 -0 0 0 -0 -0 0 0 -0 -0 -0 -0 0 1 0 0 1 1 -0 -1 -1 -1 -1 -0 -0 -1 nan
nan -0 -1 -0 -0 0 1 1 2 1 0 -1 -1 0 2 1 -1 -1 -0 -0 -0 0 1 0 -0 -0 -0 0 1 1 0 0 0 -0 -1 -1 -0 0 0 -0 -1 nan
nan -0 -0 -0 -0 1 1 2 2 1 0 -0 -1 -1 1 1 -0 -1 -1 -0 0 0 1 0 0 0 -0 -0 0 1 1 0 -0 -0 -0 -0 0 1 0 -0 -1 nan
nan 0 -0 0 1 1 2 2 2 1 -0 -0 -0 -1 -1 1 1 -1 -1 -0 0 0 0 0 1 0 -0 -0 0 1 1 0 -0 -0 -0 0 1 1 1 0 -0 nan
nan 0 -0 1 2 1 1 1 2 1 -0 0 0 -0 -1 1 2 1 -1 -1 0 0 1 1 1 0 -0 -1 -0 0 1 1 -0 -1 -0 0 1 1 1 1 -0 nan
nan -1 -1 0 1 1 0 1 2 1 -0 0 1 1 0 1 2 2 1 -1 -1 -0 1 1 1 1 0 -0 -0 -0 1 1 1 -1 -1 0 1 0 1 1 -0 nan
nan -1 -1 -0 1 1 1 2 2 1 0 1 1 1 1 0 1 1 0 -0 -1 -1 -1 0 1 1 0 0 -0 0 1 1 1 0 -1 -0 0 0 1 1 -1 nan
nan -1 -0 -0 0 2 2 3 3 2 1 1 1 2 1 -0 -1 -1 0 0 0 -1 -1 -1 -0 1 1 1 -0 0 1 1 1 1 0 -0 -0 0 1 0 -2 nan
nan -1 -0 -0 1 2 3 3 2 -0 -0 1 1 2 1 -1 -1 -1 1 1 0 0 -1 -2 -1 -0 0 1 0 0 1 1 2 1 0 -0 -1 1 1 -1 -2 nan
nan -1 -0 1 2 2 2 0 -1 -2 -0 1 2 2 0 -1 -0 0 0 1 1 1 -0 -1 -0 -0 -1 -1 0 1 1 1 2 1 0 -0 -0 2 1 -2 -3 nan
nan -1 1 1 1 0 -1 -2 -2 -1 2 3 2 2 1 1 1 0 1 1 1 0 -0 -0 0 0 -1 -2 -1 0 1 1 1 1 1 1 1 2 1 -2 -3 nan
nan 0 1 0 -0 -1 -2 -2 -0 1 3 4 3 2 1 1 0 0 1 0 -1 -1 -0 1 1 0 -1 -2 -2 0 1 1 1 1 1 1 1 1 -0 -2 -1 nan
nan 0 0 -0 -1 -2 -2 0 2 3 3 2 2 1 1 1 1 1 1 -0 -1 -0 -0 2 3 1 -1 -0 0 -0 -1 0 1 2 1 2 2 1 -1 -1 1 nan
nan -0 -0 -1 -2 -3 -1 2 2 2 1 1 2 2 2 1 1 1 0 0 1 1 -0 1 2 1 -0 1 1 -1 -2 -1 1 2 2 1 2 2 1 -0 1 nan
nan -1 -1 -2 -3 -1 1 2 2 2 2 2 3 3 2 1 0 0 0 0 1 0 -0 -0 0 1 0 1 1 -0 -1 -0 2 2 0 0 4 5 2 -0 0 nan
nan nan nan nan nan nan nan nan nan nan nan nan nan nan nan nan nan nan nan nan nan nan nan nan nan nan nan nan nan nan nan nan nan nan nan nan nan nan nan nan nan nan
Wind_Speed
38 38 37 37 36 36 34 33 33 32 30 29 28 27 27 27 25 24 24 24 22 21 20 20 19 17 17 16 16 15 14 14 14 13 13 13 12 13 14 15 14 14
39 39 38 38 37 37 36 35 35 34 33 31 29 27 27 27 27 26 26 26 24 22 21 21 21 19 19 18 18 17 16 16 16 14 12 12 13 14 15 15 15 16
41 40 40 40 39 38 37 36 36 35 34 33 31 29 28 27 28 28 27 27 26 24 22 22 22 21 21 20 20 19 18 17 18 17 14 13 14 15 15 16 16 17
43 42 41 41 40 39 38 38 38 37 36 35 34 32 30 28 28 29 29 28 27 27 25 24 24 23 22 22 21 20 20 18 19 19 16 14 16 17 17 17 17 17
44 43 43 42 42 41 40 40 40 39 38 37 35 34 33 31 30 30 30 30 29 28 27 26 25 25 24 23 22 21 22 20 19 21 19 17 18 18 18 19 19 18
45 45 44 44 43 43 42 42 41 40 39 38 37 35 34 34 33 33 32 32 31 30 29 29 28 27 26 25 24 23 23 22 21 22 20 17 17 19 19 20 21 21
47 46 46 45 45 44 44 43 42 41 40 38 37 36 35 35 35 35 34 33 32 31 30 30 30 29 28 27 26 24 24 24 23 22 21 18 17 19 20 22 23 23
49 48 47 47 46 46 45 45 44 42 41 39 38 37 37 36 36 35 35 34 33 33 31 30 31 31 30 29 29 28 26 25 25 25 25 21 18 19 21 23 25 25
49 49 48 48 47 47 46 46 44 43 42 41 40 38 37 37 37 36 35 34 33 33 33 32 32 33 32 31 31 31 28 26 24 25 27 25 22 22 23 23 26 27
50 50 49 49 48 48 47 46 44 43 44 43 41 40 38 38 37 37 36 35 34 34 34 34 34 35 34 33 33 32 31 29 24 24 27 28 26 27 26 25 27 29
50 50 50 50 50 49 48 47 45 42 42 43 43 41 39 38 38 38 38 37 37 36 36 36 37 37 36 35 35 34 33 32 28 25 27 29 29 29 29 28 30 31
50 50 51 51 50 50 49 48 47 43 39 39 42 43 41 39 40 40 40 39 39 37 37 38 38 39 39 37 36 36 35 34 32 29 28 29 30 30 30 31 32 32
49 50 50 50 50 49 49 48 47 43 39 37 39 43 43 41 41 42 42 40 40 39 38 38 39 40 40 40 38 37 37 36 35 33 31 30 30 31 32 32 33 33
48 48 48 48 48 48 48 47 46 43 40 38 38 41 43 42 41 42 43 42 41 40 39 39 40 40 41 42 41 40 39 38 38 37 35 33 31 31 32 33 34 34
46 47 47 47 46 46 46 46 45 43 41 40 39 41 41 41 39 39 41 43 42 41 41 40 41 42 42 43 43 42 42 41 40 40 39 36 34 33 33 33 34 35
45 45 47 47 47 46 46 46 45 44 43 42 41 40 40 40 39 36 36 40 43 43 43 42 43 44 44 44 44 43 43 42 42 42 41 39 38 37 35 34 35 36
46 47 47 47 47 46 47 47 46 45 46 45 43 41 39 39 40 38 36 36 39 42 43 44 45 45 45 45 45 44 43 43 43 43 43 42 41 40 38 37 38 39
46 48 47 47 48 46 47 47 46 47 47 46 46 44 42 42 42 42 40 37 36 39 41 43 44 45 45 45 45 45 44 43 43 43 43 43 42 42 40 39 40 41
45 46 47 47 48 46 46 45 46 46 47 46 46 45 44 45 45 45 45 42 40 39 39 41 42 43 45 45 45 45 44 44 44 43 43 44 43 43 42 42 42 43
45 45 45 45 46 45 45 45 45 45 45 45 46 45 45 46 47 46 46 46 44 42 41 42 42 42 43 44 44 44 44 45 45 44 45 45 44 39 38 42 46 45
45 45 43 43 44 43 43 43 43 43 43 43 44 44 45 46 46 46 46 46 46 44 43 43 42 41 43 44 44 43 44 44 45 46 47 47 45 39 34 38 45 48
44 43 43 43 43 42 42 41 41 42 42 42 42 42 42 43 45 45 45 45 46 46 46 44 41 40 42 45 46 44 43 43 45 47 48 48 48 45 41 41 44 43
43 43 43 43 43 42 42 41 41 41 41 41 42 42 41 41 42 43 42 44 45 45 46 45 41 39 41 43 45 45 43 44 46 47 49 49 50 49 47 47 44 38
41 42 42 42 42 42 41 41 41 41 40 40 41 41 40 38 37 37 38 40 42 43 44 44 42 41 41 42 42 43 44 44 46 48 49 50 51 51 51 52 50 43
39 40 41 41 41 41 41 40 40 40 39 39 40 40 38 35 33 33 34 36 37 38 40 42 42 41 42 42 42 44 44 44 45 47 49 52 52 47 44 47 51 50
38 38 39 40 40 39 39 39 38 38 37 37 37 36 34 34 33 32 32 32 33 35 36 39 41 41 42 43 43 44 45 44 45 46 49 54 51 40 34 38 44 48
Wind_Direction
222 223 225 225 227 229 228 229 233 236 237 235 232 233 235 235 232 227 228 236 237 231 230 231 229 228 227 226 222 218 216 218 220 221 220 215 211 214 215 208 202 199
222 223 224 226 227 228 229 230 232 235 237 236 232 231 235 237 236 233 232 237 239 234 231 232 230 228 228 229 227 223 220 220 222 221 215 208 207 213 217 213 209 206
223 223 224 225 227 228 229 231 233 235 237 238 235 232 233 236 238 238 236 237 239 237 232 231 231 229 228 229 230 228 224 222 224 225 218 209 207 210 216 214 214 217
223 223 224 225 227 229 230 231 233 235 236 237 237 236 233 234 236 239 239 237 237 238 235 231 231 231 229 228 229 229 226 223 224 225 220 214 212 208 210 213 211 220
224 224 225 226 227 229 231 232 233 234 236 236 237 237 236 234 235 237 239 238 237 237 238 235 233 232 231 228 226 225 224 222 223 225 222 217 219 213 209 213 211 213
225 225 226 227 228 229 231 233 234 234 236 237 237 238 237 237 236 237 238 239 238 237 237 237 236 234 233 231 227 223 222 221 221 227 225 217 218 218 212 215 215 212
225 226 226 227 229 230 231 233 234 234 235 236 236 237 237 237 237 237 237 238 240 238 236 235 236 236 234 233 231 227 224 221 220 225 228 221 215 218 218 218 221 219
226 227 227 228 229 230 231 233 234 234 234 235 235 235 235 236 238 238 238 238 238 239 237 234 235 237 236 234 235 234 229 223 220 223 230 229 219 216 219 222 226 226
227 228 229 229 229 229 230 231 232 233 234 234 234 234 234 235 237 238 239 238 237 238 237 235 234 236 237 236 237 238 234 228 223 223 228 230 226 222 222 222 227 230
227 228 229 230 230 229 229 229 229 230 234 235 233 232 233 235 236 237 239 240 238 236 237 237 235 236 236 236 237 239 239 235 228 224 228 231 232 234 231 226 228 232
227 227 229 230 231 230 229 229 228 227 231 235 236 233 231 233 236 237 238 240 239 236 235 237 237 237 236 235 236 238 239 239 234 228 231 235 238 240 239 236 235 237
227 227 228 229 230 231 230 230 229 226 225 231 237 237 233 231 234 237 237 237 238 237 235 236 237 237 237 235 235 237 238 239 237 233 234 237 240 242 242 242 242 242
227 228 228 229 230 231 230 231 230 226 220 223 232 238 237 232 232 236 238 238 238 238 236 236 237 237 238 237 235 236 237 238 238 237 236 236 239 242 243 244 245 245
227 229 230 230 230 230 230 230 229 226 221 220 226 234 238 236 232 234 239 240 239 239 238 237 237 237 238 238 237 235 236 237 238 238 238 236 236 238 241 242 243 245
224 226 230 231 229 229 230 229 227 225 223 221 223 229 235 236 233 231 236 241 241 241 241 239 238 238 238 238 238 236 235 236 238 239 239 237 235 236 238 239 240 243
221 223 228 230 229 227 229 230 227 226 225 223 223 226 230 233 231 224 227 237 242 243 242 241 240 239 238 238 238 238 237 236 237 239 240 239 237 237 237 237 238 241
223 226 229 232 232 229 230 231 229 227 228 227 224 223 224 229 231 226 221 226 236 241 243 242 242 241 240 239 239 239 239 238 237 239 241 241 239 238 238 238 240 242
224 228 229 232 235 234 233 233 231 230 231 230 228 226 225 227 231 233 229 225 228 235 240 242 243 243 242 241 240 239 239 239 239 239 240 241 240 239 237 237 240 243
223 227 229 232 235 235 234 233 232 233 233 233 233 230 228 230 233 236 236 233 228 229 234 239 242 243 243 242 241 240 240 240 239 239 239 241 241 240 238 238 242 244
222 227 229 231 233 233 233 234 235 237 237 236 235 233 231 233 235 236 238 237 235 232 233 238 241 242 244 244 242 240 240 240 240 239 240 241 242 239 236 239 244 245
223 227 229 230 232 232 233 235 236 238 239 236 234 234 234 235 236 237 237 238 238 236 235 237 239 239 242 245 244 242 240 239 240 240 240 241 241 236 232 238 245 246
223 227 228 229 231 232 234 236 236 237 238 235 232 231 232 234 236 237 238 238 240 241 241 241 239 236 238 242 244 242 239 238 239 240 240 240 239 237 236 240 243 244
222 226 227 228 230 232 234 235 235 236 236 235 233 230 230 232 235 236 237 239 242 243 244 243 238 234 235 239 241 241 240 237 236 238 239 239 239 238 239 241 240 237
223 226 228 229 231 233 235 235 235 236 236 235 235 233 229 228 228 230 233 237 239 241 243 242 238 237 238 238 237 239 240 238 235 236 238 240 240 239 240 241 240 237
224 228 230 232 234 235 236 236 235 236 236 236 237 234 229 224 223 225 229 232 234 236 239 242 242 241 241 240 238 237 238 238 237 236 237 240 241 239 239 240 240 238
227 230 233 235 236 236 237 237 236 235 234 235 235 231 226 224 223 223 226 229 231 233 235 240 243 241 240 242 242 240 238 238 237 236 237 239 239 236 235 238 238 238
Height
1527 1529 1531 1534 1536 1538 1540 1542 1543 1545 1547 1548 1550 1551 1553 1554 1556 1557 1558 1559 1560 1562 1563 1564 1566 1567 1568 1569 1570 1571 1572 1572 1573 1574 1574 1575 1576 1577 1577 1578 1578 1580
1524 1526 1528 1530 1532 1534 1537 1539 1540 1542 1543 1545 1547 1549 1550 1552 1553 1555 1556 1557 1558 1560 1561 1562 1563 1564 1566 1567 1568 1569 1570 1571 1571 1572 1573 1573 1574 1575 1576 1576 1577 1578
1520 1522 1524 1526 1528 1531 1533 1535 1537 1539 1540 1542 1544 1546 1548 1549 1550 1552 1553 1555 1556 1557 1558 1560 1561 1562 1563 1564 1566 1567 1568 1569 1570 1571 1571 1572 1572 1573 1574 1575 1576 1576
1516 1518 1520 1523 1525 1528 1530 1532 1534 1535 1537 1539 1541 1543 1545 1547 1548 1549 1550 1552 1553 1554 1556 1557 1558 1559 1561 1562 1563 1565 1566 1567 1568 1569 1570 1570 1570 1571 1572 1573 1574 1575
1511 1514 1517 1519 1522 1524 1526 1528 1530 1532 1534 1536 1538 1540 1542 1543 1545 1546 1547 1549 1550 1552 1553 1554 1556 1557 1558 1559 1560 1562 1563 1565 1566 1567 1568 1568 1568 1569 1569 1570 1571 1572
1507 1510 1513 1515 1518 1520 1522 1524 1526 1528 1530 1532 1535 1537 1538 1540 1542 1543 1544 1545 1547 1549 1550 1551 1553 1554 1555 1556 1558 1559 1560 1562 1563 1564 1565 1566 1567 1567 1567 1567 1568 1570
1502 1505 1508 1511 1514 1516 1518 1520 1522 1525 1527 1529 1531 1533 1535 1536 1538 1539 1541 1542 1544 1546 1547 1549 1550 1552 1553 1554 1555 1556 1558 1559 1560 1561 1562 1563 1565 1565 1565 1565 1565 1566
1498 1501 1504 1507 1509 1512 1514 1516 1519 1521 1523 1526 1528 1530 1531 1533 1534 1536 1538 1539 1541 1542 1544 1546 1547 1548 1550 1552 1553 1554 1555 1556 1558 1558 1559 1560 1561 1562 1563 1563 1563 1563
1494 1497 1499 1502 1505 1508 1510 1512 1515 1517 1519 1521 1524 1526 1527 1529 1531 1533 1534 1536 1538 1539 1541 1543 1544 1545 1547 1548 1549 1551 1552 1554 1555 1555 1556 1557 1558 1559 1560 1560 1560 1561
1489 1492 1495 1498 1500 1503 1505 1508 1511 1513 1515 1517 1520 1522 1524 1526 1528 1529 1531 1532 1534 1536 1537 1539 1540 1541 1543 1545 1546 1548 1549 1551 1552 1553 1554 1554 1555 1556 1557 1558 1558 1558
1483 1487 1490 1492 1495 1498 1501 1504 1507 1509 1510 1512 1515 1518 1521 1522 1524 1526 1527 1528 1530 1532 1534 1535 1536 1537 1539 1541 1543 1544 1546 1547 1549 1550 1551 1552 1552 1553 1553 1554 1554 1555
1478 1481 1484 1487 1490 1493 1496 1499 1502 1505 1507 1508 1510 1513 1516 1518 1519 1521 1522 1524 1525 1528 1530 1531 1532 1533 1535 1537 1539 1540 1542 1544 1545 1547 1547 1548 1549 1550 1550 1551 1551 1552
1473 1476 1479 1483 1485 1488 1492 1495 1497 1501 1503 1505 1506 1508 1511 1514 1515 1516 1518 1519 1521 1523 1525 1527 1528 1529 1531 1533 1535 1537 1538 1539 1541 1542 1544 1545 1546 1546 1547 1548 1548 1549
1469 1472 1475 1479 1482 1484 1488 1490 1493 1496 1500 1502 1503 1504 1506 1509 1511 1512 1513 1515 1517 1519 1521 1523 1524 1525 1526 1528 1530 1532 1534 1535 1536 1538 1539 1541 1542 1543 1544 1544 1545 1545
1466 1469 1471 1475 1478 1480 1483 1486 1489 1492 1496 1498 1500 1500 1502 1505 1507 1508 1509 1511 1513 1515 1517 1518 1519 1520 1521 1523 1525 1527 1529 1531 1532 1533 1535 1537 1538 1539 1540 1541 1541 1542
1462 1465 1467 1470 1473 1476 1478 1481 1485 1488 1491 1494 1496 1497 1498 1500 1503 1505 1506 1507 1509 1510 1512 1513 1514 1515 1516 1518 1520 1522 1525 1527 1528 1529 1531 1533 1534 1535 1536 1537 1538 1538
1458 1461 1463 1466 1469 1472 1474 1477 1481 1483 1486 1489 1491 1493 1495 1496 1499 1501 1503 1503 1504 1505 1507 1508 1509 1510 1511 1513 1516 1518 1520 1522 1524 1525 1526 1528 1530 1531 1532 1533 1534 1535
1453 1456 1459 1461 1464 1467 1470 1473 1476 1479 1481 1484 1486 1489 1491 1492 1494 1496 1497 1499 1500 1501 1502 1503 1504 1505 1506 1508 1511 1513 1516 1518 1519 1521 1522 1523 1525 1526 1527 1528 1529 1530
1448 1451 1454 1457 1459 1463 1466 1469 1472 1474 1476 1479 1481 1484 1486 1487 1488 1490 1492 1494 1495 1496 1497 1498 1499 1500 1501 1503 1506 1508 1511 1513 1515 1516 1517 1518 1520 1521 1522 1523 1524 1525
1444 1446 1449 1452 1455 1458 1462 1464 1467 1469 1471 1474 1476 1478 1480 1481 1482 1484 1486 1488 1490 1491 1492 1493 1494 1495 1496 1497 1500 1503 1506 1508 1510 1511 1512 1513 1514 1516 1517 1517 1518 1519
1440 1442 1445 1448 1450 1453 1456 1458 1461 1462 1465 1468 1470 1473 1474 1475 1477 1479 1480 1482 1484 1486 1487 1488 1489 1491 1491 1492 1494 1498 1501 1503 1505 1506 1506 1507 1508 1510 1512 1512 1512 1513
1436 1439 1442 1444 1446 1448 1450 1452 1455 1457 1460 1463 1466 1468 1470 1471 1472 1474 1475 1477 1478 1480 1482 1482 1483 1485 1486 1486 1488 1491 1495 1497 1499 1500 1501 1501 1502 1503 1505 1506 1506 1507
1434 1436 1438 1440 1442 1444 1446 1448 1450 1453 1456 1459 1461 1464 1465 1466 1467 1469 1471 1472 1473 1474 1475 1476 1478 1479 1480 1481 1482 1485 1488 1491 1492 1494 1494 1495 1496 1498 1499 1499 1500 1502
1431 1433 1435 1437 1438 1440 1442 1444 1447 1449 1452 1454 1456 1458 1461 1462 1464 1465 1466 1467 1468 1469 1469 1471 1473 1474 1475 1476 1478 1480 1482 1484 1486 1488 1489 1489 1490 1492 1493 1493 1494 1496
1427 1429 1431 1433 1435 1436 1439 1441 1444 1446 1448 1450 1452 1454 1457 1459 1461 1462 1462 1463 1464 1464 1465 1466 1468 1469 1470 1471 1472 1474 1476 1478 1480 1482 1482 1483 1484 1486 1488 1488 1489 1490
1423 1425 1427 1429 1431 1434 1436 1439 1441 1443 1445 1447 1448 1450 1453 1455 1457 1458 1459 1459 1460 1460 1461 1461 1462 1463 1464 1464 1466 1468 1470 1472 1474 1475 1475 1476 1478 1481 1482 1482 1483 1484